TimeCST,TemperatureF,Dew PointF,Humidity,Sea Level PressureIn,VisibilityMPH,Wind Direction,Wind SpeedMPH,Gust SpeedMPH,PrecipitationIn,Events,Conditions,WindDirDegrees,DateUTC
12:53 AM,37.0,30.0,76,30.17,10.0,Calm,Calm,-,N/A,,Clear,0,2012-11-05 06:53:00
1:53 AM,37.9,30.0,73,30.17,10.0,Calm,Calm,-,N/A,,Clear,0,2012-11-05 07:53:00
2:53 AM,33.1,28.0,82,30.17,10.0,Calm,Calm,-,N/A,,Clear,0,2012-11-05 08:53:00
3:53 AM,34.0,28.9,82,30.17,10.0,Calm,Calm,-,N/A,,Clear,0,2012-11-05 09:53:00
4:53 AM,34.0,28.9,82,30.18,10.0,Calm,Calm,-,N/A,,Clear,0,2012-11-05 10:53:00
5:53 AM,32.0,28.9,88,30.18,10.0,Calm,Calm,-,N/A,,Clear,0,2012-11-05 11:53:00
6:53 AM,34.0,30.0,85,30.18,10.0,Calm,Calm,-,N/A,,Clear,0,2012-11-05 12:53:00
7:53 AM,37.9,30.9,76,30.18,10.0,ENE,3.5,-,N/A,,Clear,70,2012-11-05 13:53:00
8:53 AM,42.1,33.1,70,30.17,10.0,East,3.5,-,N/A,,Partly Cloudy,80,2012-11-05 14:53:00
9:53 AM,46.0,32.0,58,30.16,10.0,East,8.1,-,N/A,,Clear,90,2012-11-05 15:53:00
10:53 AM,48.9,30.0,48,30.14,10.0,NE,6.9,-,N/A,,Mostly Cloudy,40,2012-11-05 16:53:00
11:53 AM,50.0,30.9,48,30.10,10.0,East,5.8,-,N/A,,Mostly Cloudy,100,2012-11-05 17:53:00
12:53 PM,53.1,30.9,43,30.07,10.0,East,3.5,-,N/A,,Overcast,90,2012-11-05 18:53:00
1:53 PM,53.1,30.9,43,30.05,10.0,Variable,3.5,-,N/A,,Mostly Cloudy,0,2012-11-05 19:53:00
2:53 PM,52.0,32.0,47,30.06,10.0,NE,4.6,-,N/A,,Overcast,40,2012-11-05 20:53:00
3:53 PM,50.0,30.9,48,30.07,10.0,NNW,5.8,-,N/A,,Overcast,330,2012-11-05 21:53:00
4:53 PM,48.0,30.9,52,30.09,10.0,NNW,6.9,-,N/A,,Overcast,340,2012-11-05 22:53:00
5:53 PM,46.9,32.0,56,30.10,10.0,NNW,5.8,-,N/A,,Overcast,330,2012-11-05 23:53:00
6:53 PM,46.0,33.1,61,30.09,10.0,Calm,Calm,-,N/A,,Overcast,0,2012-11-06 00:53:00
7:53 PM,46.0,32.0,58,30.09,10.0,North,3.5,-,N/A,,Overcast,10,2012-11-06 01:53:00
8:53 PM,45.0,32.0,60,30.09,10.0,North,3.5,-,N/A,,Overcast,10,2012-11-06 02:53:00
9:53 PM,45.0,32.0,60,30.08,10.0,Calm,Calm,-,N/A,,Overcast,0,2012-11-06 03:53:00
10:53 PM,44.1,32.0,63,30.06,10.0,Calm,Calm,-,N/A,,Scattered Clouds,0,2012-11-06 04:53:00
11:53 PM,44.1,33.1,65,30.05,10.0,Calm,Calm,-,N/A,,Mostly Cloudy,0,2012-11-06 05:53:00